sat.trackr.live / text

‹ back to catalog

STARLINK-2672

NORAD 48650 · 2021-044N

PAYLOAD ACTIVE UNKNOWN

§ Identity

Operator
Country
US
Launch date
2021-05-26
Launch site
AFETR
Launch vehicle
Mass (kg)
RCS (m²)

Purposes: comms

External: N2YO · Heavens-Above · Gunter

§ Orbital elements

Epoch: 2026-09-18T19:34:59.219616Z

Period
94.01 min
Inclination
53.1596°
Eccentricity
0.0001708
Mean motion
15.31700467 rev/d
Perigee alt
469.6 km
Apogee alt
471.9 km
Semi-major
6,848.9 km
B*
6.6926e-6
RAAN
295.1749°
Arg perigee
81.8446°
Mean anomaly
278.2750°
Rev number
29,341

§ Raw data

STARLINK-26721 48650U 21044N   26261.81596319 -.00000158  00000+0  66926-5 0  99912 48650  53.1596 295.1749 0001708  81.8446 278.2750 15.31700467293412

JSON: /api/v1/satellites/48650 · /tle

For live sub-satellite position, see the globe view (requires WebGL).

§ Visibility from observer

Set your observer location to see the next 7 days of passes ≥ 10°. The values pass through the URL so the page stays shareable.

No JS? Fill the form by hand. The geolocation button needs JavaScript.